[[{"header":{"parameterUnit":"m.s-1","parameterCategory":1,"la1":30.2991,"la2":30.254,"lo1":-89.0895,"lo2":-89.0444,"dy":0.0017,"dx":0.0017,"nx":28,"ny":28,"refTime":"2024-02-28T03:00:00:Z","depth":0,"parameterNumber":2,"parameterNumberName":"U-component_of_WINDS"},"data":[0,0,0,0,0,0,0,0,0,0,0,0,0,0,0,0,0,0,0,0,0,0,0,0,0,0,0,0,0,0,0,0,0,0,0,0,0,0,0,0,0,0,0,0,0,0,0,0,0,0,0,0,0,0,0,0,0,0,-5.6886,-5.6889,0,-5.7146,-5.7149,-5.7152,-5.7107,-5.7103,-5.7098,-5.7094,-5.7366,-5.7377,-5.7389,0,0,0,0,0,0,0,0,0,0,0,0,0,-5.6355,-5.6365,-5.6886,-5.6889,-5.6892,-5.7145,-5.7149,-5.7153,-5.7108,-5.7103,-5.7097,-5.7092,-5.7363,-5.7376,-5.739,0,0,0,0,0,0,0,0,0,0,0,0,0,-5.6597,-5.6368,-5.6885,-5.6901,-5.6905,-5.7145,-5.7149,-5.7154,-5.7109,-5.7103,-5.7096,-5.7089,-5.7358,-5.7375,-5.7392,-5.7635,0,0,-5.7444,-5.7452,0,0,0,0,0,0,0,0,-5.6584,-5.6617,-5.6895,-5.69,-5.6905,-5.7087,-5.7062,-5.7315,-5.7111,-5.7032,-5.7094,-5.7086,-5.7279,-5.7303,-5.7367,-5.7648,-5.7659,-5.7446,-5.7456,-5.7464,-5.7469,0,0,0,0,0,0,0,-5.6567,-5.6606,-5.6989,-5.6899,-5.6905,-5.6896,-5.6923,-5.7109,-5.7191,-5.7038,-5.7036,-5.7067,-5.7281,-5.735,-5.7373,-5.7663,-5.7446,-5.7461,-5.7471,-5.7478,-5.8155,-5.8162,0,0,0,0,0,0,-5.6545,-5.6592,-5.6981,-5.6997,-5.6724,-5.6911,-5.6941,-5.7036,-5.7189,-5.7205,-5.7072,-5.7064,-5.7324,-5.7353,-5.7382,-5.7675,-5.7464,-5.748,-5.749,-5.8147,-5.8156,-5.8165,0,0,0,0,0,0,-5.6534,-5.658,-5.697,-5.6794,-5.6843,-5.6927,-5.7034,-5.7044,-5.7114,-5.7214,-5.7229,-5.7128,-5.732,-5.7358,-5.7571,-5.7684,-5.7488,-5.7503,-5.8138,-5.815,-5.816,-5.8264,0,0,0,0,0,0,-5.6519,-5.6576,-5.6669,-5.6796,-5.6852,-5.7155,-5.7041,-5.7054,-5.7143,-5.7134,-5.727,-5.7287,-5.7317,-5.7546,-5.7589,-5.7704,-5.7517,-5.8128,-5.8143,-5.8157,-5.8251,-5.8278,-5.8301,0,0,0,0,0,-5.65,-5.669,-5.6674,-5.6721,-5.6969,-5.7161,-5.7193,-5.7223,-5.7152,-5.7246,-5.731,-5.7282,-5.7665,-5.7568,-5.7616,-5.7738,-5.8121,-5.8139,-5.8156,-5.824,-5.8273,-5.83,0,0,0,0,0,0,-5.6577,-5.6707,-5.6691,-5.6927,-5.7033,-5.7153,-5.7273,-5.7257,-5.7387,-5.7374,-5.7407,-5.7438,-5.7654,-5.7718,-5.7608,-5.798,-5.7883,-5.7911,-5.7931,-5.7963,-5.7987,-5.7967,-5.7531,0,0,0,0,0,-5.662,-5.6763,-5.687,-5.7069,-5.7122,-5.7188,-5.7273,-5.7286,-5.7398,-5.7444,-5.7524,-5.7635,-5.778,-5.7875,-5.8014,-5.826,-5.8288,-5.8367,-5.8392,-5.8412,-5.8435,-5.8568,-5.8604,-5.8221,-5.8221,-5.822,0,0,-5.6714,-5.6802,-5.6891,-5.7086,-5.717,-5.7318,-5.7227,-5.7388,-5.7499,-5.7469,-5.7674,-5.7737,-5.7863,-5.8093,-5.8199,-5.8153,-5.8547,-5.8434,-5.8449,-5.8462,-5.859,-5.8626,-5.8658,-5.8233,-5.823,-5.8229,0,0,-5.6959,-5.7041,-5.7214,-5.7298,-5.7425,-5.7467,-5.7509,-5.7631,-5.7671,-5.7877,-5.7857,-5.7989,-5.8239,-5.8329,-5.8407,-5.8683,-5.8662,-5.8728,-5.8857,-5.8986,-5.9016,-5.9043,-5.9141,-5.9175,-5.8751,-5.8751,-5.8751,0,-5.706,-5.728,-5.7305,-5.7468,-5.7554,-5.753,-5.7706,-5.7788,-5.7955,-5.8015,-5.796,-5.8271,-5.8354,-5.8604,-5.8671,-5.8736,-5.8784,-5.8713,-5.901,-5.9037,-5.9063,-5.9156,-5.9192,-5.8758,-5.8757,-5.8757,-5.8756,0,-5.7397,-5.755,-5.7675,-5.7833,-5.7933,-5.8102,-5.8152,-5.8251,-5.8255,-5.8303,-5.8513,-5.8611,-5.8769,-5.8829,-5.8837,-5.908,-5.9047,-5.9001,-5.8904,-5.9106,-5.9194,-5.923,-5.8768,-5.8766,-5.8764,-5.8762,0,0,-5.77,-5.7866,-5.7912,-5.7982,-5.8119,-5.8239,-5.8406,-5.8557,-5.864,-5.8756,-5.8896,-5.9106,-5.9063,-5.9152,-5.9169,-5.9283,-5.9493,-5.9223,-5.9226,-5.9268,-5.9766,-5.9799,-5.984,-5.9479,-5.9486,-5.9492,-5.9755,0,-5.7957,-5.8249,-5.8275,-5.8538,-5.868,-5.8658,-5.8804,-5.8904,-5.8953,-5.9081,-5.9135,-5.9283,-5.9216,-5.9269,-5.938,-5.9444,-5.9593,-5.9425,-5.9611,-5.9617,-5.9579,-5.9886,-5.9923,-6.0166,-5.979,-5.9795,-5.98,0,-5.8297,-5.8418,-5.8694,-5.8808,-5.8869,-5.8999,-5.9138,-5.9261,-5.9373,-5.9401,-5.9499,-5.9499,-5.9671,-5.9567,-5.9805,-5.969,-5.9767,-5.981,-5.982,-5.9838,-5.972,-5.9912,-6.0245,-6.0281,-5.9854,-5.985,-5.9846,0,-5.8488,-5.8721,-5.8915,-5.8977,-5.9115,-5.9207,-5.9269,-5.9374,-5.9463,-5.9586,-5.9643,-5.9785,-5.9863,-5.9974,-6.0013,-5.9933,-6.0248,-6.0148,-6.0276,-6.0275,-6.0344,-6.0339,-6.0693,-6.0395,-6.0394,-6.0394,-6.0393,0,-5.8772,-5.8942,-5.9003,-5.9123,-5.9312,-5.934,-5.9527,-5.9585,-5.9678,-5.9809,-5.9801,-5.9924,-5.9968,-6.01,-6.0132,-6.0323,-6.0358,-6.0386,-6.0392,-6.0386,-6.0383,-6.0438,-6.0422,-6.0403,-6.0401,-6.0399,-6.0398,0,-5.9018,-5.9066,-5.9276,-5.9389,-5.9421,-5.9555,-5.9652,-5.9768,-5.9813,-5.9979,-6.002,-6.0093,-6.0246,-6.0296,-6.0483,-6.0504,-6.0727,-6.0719,-6.0688,-6.0689,-6.0814,-6.0801,-6.1215,-6.1271,-6.0936,-6.094,-6.0942,0,-5.9196,-5.9325,-5.945,-5.9536,-5.9601,-5.974,-5.9829,-5.9862,-5.9955,-6.0091,-6.0191,-6.0342,-6.0465,-6.0711,-6.0782,-6.0924,-6.0919,-6.1054,-6.0941,-6.093,-6.092,-6.0912,-6.0924,-6.1076,-6.1079,-6.1082,-6.1085,0,-5.9506,-5.9522,-5.965,-5.9786,-5.9892,-6.0001,-6.0106,-6.0178,-6.0226,-6.0331,-6.0486,-6.0581,-6.077,-6.092,-6.1064,-6.113,-6.1116,-6.1119,-6.1156,-6.1152,-6.1128,-6.1141,-6.0745,-6.111,-6.1107,-6.1106,-6.1104,-6.1103,-5.9723,-5.9836,-5.994,-6.0083,-6.0164,-6.0262,-6.0375,-6.0434,-6.0563,-6.0717,-6.0729,-6.0897,-6.1005,-6.1196,-6.1269,-6.1401,-6.1363,-6.1417,-6.143,-6.1443,-6.1452,-6.1107,-6.1428,-6.1427,-6.1426,-6.1426,-6.1425,0,-6.0032,-6.0097,-6.0227,-6.0373,-6.0484,-6.0458,-6.0573,-6.0668,-6.0815,-6.0916,-6.1035,-6.1213,-6.1358,-6.1439,-6.1584,-6.1674,-6.1671,-6.1711,-6.1705,-6.172,-6.1479,-6.1432,-6.1711,-6.1711,-6.1711,-6.1711,-6.1711,-6.1711,-6.0205,-6.0394,-6.0422,-6.0651,-6.0716,-6.0878,-6.0946,-6.1036,-6.1116,-6.1314,-6.1433,-6.1483,-6.1576,-6.1727,-6.1859,-6.1879,-6.1933,-6.1977,-6.1993,-6.1767,-6.1737,-6.1709,-6.1665,-6.1989,-6.1989,-6.2223,-6.2225,-6.2227]},{"header":{"parameterUnit":"m.s-1","parameterCategory":1,"la1":30.2991,"la2":30.254,"lo1":-89.0895,"lo2":-89.0444,"dy":0.0017,"dx":0.0017,"nx":28,"ny":28,"refTime":"2024-02-28T03:00:00:Z","depth":0,"parameterNumber":3,"parameterNumberName":"V-component_of_WINDS"},"data":[0,0,0,0,0,0,0,0,0,0,0,0,0,0,0,0,0,0,0,0,0,0,0,0,0,0,0,0,0,0,0,0,0,0,0,0,0,0,0,0,0,0,0,0,0,0,0,0,0,0,0,0,0,0,0,0,0,0,-0.596,-0.5961,0,-0.5981,-0.5981,-0.5981,-0.5982,-0.5982,-0.5981,-0.5981,-0.6005,-0.6005,-0.6006,0,0,0,0,0,0,0,0,0,0,0,0,0,-0.5923,-0.5924,-0.596,-0.5961,-0.5961,-0.5981,-0.5981,-0.5981,-0.5982,-0.5982,-0.5981,-0.5981,-0.6004,-0.6005,-0.6006,0,0,0,0,0,0,0,0,0,0,0,0,0,-0.5941,-0.5924,-0.596,-0.5964,-0.5964,-0.5981,-0.5981,-0.5982,-0.5982,-0.5982,-0.5981,-0.5981,-0.6004,-0.6005,-0.6007,-0.6022,0,0,-0.6011,-0.6011,0,0,0,0,0,0,0,0,-0.594,-0.5943,-0.5963,-0.5963,-0.5964,-0.5978,-0.5977,-0.5995,-0.5982,-0.5975,-0.5981,-0.5981,-0.5996,-0.5998,-0.6003,-0.6024,-0.6025,-0.6011,-0.6011,-0.6012,-0.6012,0,0,0,0,0,0,0,-0.5939,-0.5942,-0.5969,-0.5963,-0.5964,-0.5964,-0.5967,-0.598,-0.5988,-0.5976,-0.5976,-0.5978,-0.5997,-0.6002,-0.6004,-0.6025,-0.6011,-0.6012,-0.6013,-0.6013,-0.6059,-0.6059,0,0,0,0,0,0,-0.5937,-0.5941,-0.5968,-0.5969,-0.5951,-0.5965,-0.5968,-0.5974,-0.5988,-0.5989,-0.5978,-0.5978,-0.6,-0.6002,-0.6004,-0.6023,-0.6012,-0.6013,-0.6014,-0.6058,-0.6059,-0.6059,0,0,0,0,0,0,-0.5936,-0.5939,-0.5967,-0.5955,-0.5959,-0.5966,-0.5974,-0.5975,-0.598,-0.599,-0.5991,-0.5982,-0.6,-0.6003,-0.6018,-0.6024,-0.6014,-0.6015,-0.6058,-0.6058,-0.6059,-0.6061,0,0,0,0,0,0,-0.5935,-0.5939,-0.5945,-0.5955,-0.5959,-0.5979,-0.5974,-0.5975,-0.5982,-0.5982,-0.5994,-0.5995,-0.5999,-0.6016,-0.6019,-0.6026,-0.6016,-0.6057,-0.6058,-0.6059,-0.6061,-0.6062,-0.6063,0,0,0,0,0,-0.5934,-0.5945,-0.5945,-0.5948,-0.5966,-0.598,-0.5982,-0.5986,-0.5982,-0.5988,-0.5994,-0.5995,-0.6023,-0.6017,-0.6021,-0.6028,-0.6057,-0.6058,-0.6059,-0.606,-0.6062,-0.6063,0,0,0,0,0,0,-0.5937,-0.5947,-0.5947,-0.5962,-0.597,-0.598,-0.5987,-0.5988,-0.5998,-0.5997,-0.6002,-0.6005,-0.602,-0.6026,-0.6019,-0.6044,-0.6039,-0.6041,-0.6039,-0.6041,-0.6042,-0.604,-0.6017,0,0,0,0,0,-0.5939,-0.5948,-0.5957,-0.597,-0.5973,-0.598,-0.5986,-0.5988,-0.5997,-0.6,-0.6008,-0.6017,-0.6028,-0.6035,-0.6045,-0.6062,-0.6064,-0.6068,-0.607,-0.6071,-0.6072,-0.6081,-0.6082,-0.6062,-0.6062,-0.6062,0,0,-0.5944,-0.5951,-0.5957,-0.597,-0.5977,-0.5986,-0.5983,-0.5994,-0.6001,-0.6002,-0.6016,-0.6022,-0.6033,-0.6048,-0.6055,-0.6053,-0.6078,-0.6072,-0.6072,-0.6073,-0.6082,-0.6084,-0.6085,-0.6063,-0.6063,-0.6063,0,0,-0.5958,-0.5964,-0.5975,-0.5981,-0.5991,-0.5995,-0.5997,-0.6007,-0.601,-0.6024,-0.6025,-0.6035,-0.6053,-0.606,-0.6067,-0.6082,-0.6083,-0.6086,-0.6092,-0.61,-0.6102,-0.6103,-0.6109,-0.611,-0.6087,-0.6087,-0.6087,0,-0.5964,-0.5978,-0.5981,-0.5991,-0.5997,-0.5998,-0.6009,-0.6015,-0.6028,-0.6032,-0.6029,-0.6052,-0.6059,-0.6076,-0.608,-0.6085,-0.6088,-0.6085,-0.6101,-0.6103,-0.6104,-0.6109,-0.6111,-0.6088,-0.6088,-0.6088,-0.6088,0,-0.5984,-0.5994,-0.6001,-0.6012,-0.6019,-0.603,-0.6035,-0.6041,-0.6043,-0.6047,-0.6061,-0.607,-0.6082,-0.6086,-0.6088,-0.6103,-0.6101,-0.61,-0.6096,-0.6106,-0.6111,-0.6113,-0.6088,-0.6088,-0.6088,-0.6088,0,0,-0.6001,-0.6012,-0.6015,-0.602,-0.6029,-0.6037,-0.6048,-0.6059,-0.6064,-0.6073,-0.6082,-0.6097,-0.6096,-0.6103,-0.6106,-0.6113,-0.6124,-0.6111,-0.6111,-0.6113,-0.6141,-0.6141,-0.6144,-0.6125,-0.6125,-0.6125,-0.614,0,-0.6015,-0.6033,-0.6036,-0.6052,-0.6061,-0.6061,-0.6071,-0.6078,-0.6082,-0.6091,-0.6096,-0.6107,-0.6104,-0.6108,-0.6115,-0.6121,-0.613,-0.612,-0.6134,-0.6134,-0.613,-0.6146,-0.6147,-0.616,-0.6142,-0.6142,-0.6142,0,-0.6035,-0.6043,-0.606,-0.6067,-0.6071,-0.608,-0.6089,-0.6097,-0.6106,-0.6108,-0.6115,-0.6117,-0.6129,-0.6124,-0.614,-0.6133,-0.6139,-0.6142,-0.6143,-0.6144,-0.6139,-0.6148,-0.6165,-0.6166,-0.6145,-0.6145,-0.6145,0,-0.6045,-0.606,-0.6072,-0.6076,-0.6085,-0.6091,-0.6095,-0.6103,-0.6109,-0.6118,-0.6122,-0.6132,-0.6138,-0.6146,-0.6151,-0.6147,-0.6166,-0.6162,-0.6169,-0.6168,-0.6173,-0.6172,-0.619,-0.6177,-0.6177,-0.6177,-0.6177,0,-0.6061,-0.6071,-0.6076,-0.6083,-0.6094,-0.6097,-0.6109,-0.6113,-0.612,-0.6128,-0.613,-0.6138,-0.6144,-0.6152,-0.6156,-0.6169,-0.6171,-0.6174,-0.6175,-0.6174,-0.6173,-0.6177,-0.6176,-0.6177,-0.6177,-0.6177,-0.6177,0,-0.6074,-0.6078,-0.609,-0.6098,-0.61,-0.6108,-0.6115,-0.6122,-0.6126,-0.6137,-0.6139,-0.6146,-0.6156,-0.6161,-0.6175,-0.6178,-0.6191,-0.6192,-0.6188,-0.6188,-0.6195,-0.6194,-0.6216,-0.6219,-0.6204,-0.6204,-0.6204,0,-0.6084,-0.6091,-0.6099,-0.6105,-0.6109,-0.6117,-0.6123,-0.6126,-0.6132,-0.6142,-0.6148,-0.6158,-0.6167,-0.6183,-0.619,-0.62,-0.6201,-0.6208,-0.6202,-0.62,-0.62,-0.6199,-0.62,-0.6208,-0.6209,-0.6209,-0.6209,0,-0.6101,-0.6102,-0.6109,-0.6117,-0.6124,-0.6131,-0.6138,-0.6142,-0.6147,-0.6153,-0.6163,-0.617,-0.6183,-0.6193,-0.6203,-0.6209,-0.621,-0.621,-0.6212,-0.6211,-0.6208,-0.621,-0.619,-0.621,-0.621,-0.621,-0.621,-0.621,-0.6112,-0.6118,-0.6125,-0.6133,-0.6138,-0.6144,-0.6151,-0.6155,-0.6163,-0.6173,-0.6175,-0.6186,-0.6194,-0.6208,-0.6213,-0.6222,-0.6221,-0.6224,-0.6225,-0.6225,-0.6225,-0.6207,-0.6224,-0.6224,-0.6224,-0.6224,-0.6224,0,-0.6128,-0.6132,-0.614,-0.6148,-0.6155,-0.6154,-0.6162,-0.6167,-0.6176,-0.6183,-0.6191,-0.6202,-0.6212,-0.6219,-0.6229,-0.6235,-0.6235,-0.6237,-0.6237,-0.6238,-0.6226,-0.6223,-0.6236,-0.6236,-0.6236,-0.6236,-0.6236,-0.6236,-0.6137,-0.6148,-0.615,-0.6163,-0.6167,-0.6176,-0.6181,-0.6186,-0.6192,-0.6204,-0.6212,-0.6216,-0.6222,-0.6233,-0.6242,-0.6244,-0.6247,-0.6249,-0.6251,-0.624,-0.6239,-0.6237,-0.6235,-0.625,-0.625,-0.6261,-0.6262,-0.6262]}]]